TimeCDT,TemperatureF,Dew PointF,Humidity,Sea Level PressureIn,VisibilityMPH,Wind Direction,Wind SpeedMPH,Gust SpeedMPH,PrecipitationIn,Events,Conditions,WindDirDegrees,DateUTC
12:15 AM,59.9,-9999,N/A,29.79,10.0,SW,3.5,-,N/A,,Clear,220,2013-05-22 05:15:00
12:35 AM,58.3,-9999,N/A,29.79,10.0,SW,3.5,-,N/A,,Clear,230,2013-05-22 05:35:00
12:55 AM,58.3,-9999,N/A,29.79,10.0,SW,4.6,-,N/A,,Clear,230,2013-05-22 05:55:00
1:15 AM,58.3,-9999,N/A,29.78,10.0,SSW,4.6,-,N/A,,Clear,210,2013-05-22 06:15:00
1:35 AM,58.3,-9999,N/A,29.78,10.0,SW,4.6,-,N/A,,Clear,220,2013-05-22 06:35:00
1:55 AM,58.3,-9999,N/A,29.78,10.0,SW,4.6,-,N/A,,Clear,220,2013-05-22 06:55:00
2:15 AM,58.3,-9999,N/A,29.78,10.0,SW,5.8,-,N/A,,Clear,230,2013-05-22 07:15:00
2:35 AM,58.3,-9999,N/A,29.77,10.0,SSW,4.6,-,N/A,,Scattered Clouds,210,2013-05-22 07:35:00
2:55 AM,58.3,-9999,N/A,29.77,10.0,SW,5.8,-,N/A,,Scattered Clouds,220,2013-05-22 07:55:00
3:15 AM,58.3,-9999,N/A,29.77,10.0,SW,4.6,-,N/A,,Mostly Cloudy,230,2013-05-22 08:15:00
3:35 AM,58.3,-9999,N/A,29.77,10.0,Calm,Calm,-,N/A,,Mostly Cloudy,0,2013-05-22 08:35:00
3:55 AM,58.3,-9999,N/A,29.78,10.0,WSW,5.8,-,N/A,,Mostly Cloudy,240,2013-05-22 08:55:00
4:15 AM,58.3,-9999,N/A,29.78,10.0,SSW,6.9,-,N/A,,Overcast,210,2013-05-22 09:15:00
4:35 AM,58.3,-9999,N/A,29.78,10.0,SW,6.9,-,N/A,,Overcast,230,2013-05-22 09:35:00
4:55 AM,58.3,-9999,N/A,29.78,10.0,SW,5.8,-,N/A,,Overcast,230,2013-05-22 09:55:00
5:15 AM,58.3,-9999,N/A,29.79,10.0,WSW,4.6,-,N/A,,Overcast,250,2013-05-22 10:15:00
5:35 AM,58.3,-9999,N/A,29.79,10.0,West,4.6,-,N/A,,Mostly Cloudy,260,2013-05-22 10:35:00
5:55 AM,58.3,-9999,N/A,29.79,10.0,WSW,5.8,-,N/A,,Mostly Cloudy,240,2013-05-22 10:55:00
6:15 AM,58.3,-9999,N/A,29.80,10.0,WSW,3.5,-,N/A,,Scattered Clouds,250,2013-05-22 11:15:00
6:35 AM,58.3,-9999,N/A,29.80,10.0,SW,4.6,-,N/A,,Clear,220,2013-05-22 11:35:00
6:55 AM,58.3,-9999,N/A,29.80,10.0,WSW,4.6,-,N/A,,Clear,240,2013-05-22 11:55:00
7:15 AM,58.3,-9999,N/A,29.81,10.0,WSW,4.6,-,N/A,,Clear,250,2013-05-22 12:15:00
7:35 AM,58.3,-9999,N/A,29.81,10.0,West,4.6,-,N/A,,Clear,260,2013-05-22 12:35:00
7:55 AM,59.0,59.2,100,29.82,10.0,West,5.8,-,N/A,,Clear,260,2013-05-22 12:55:00
8:15 AM,60.8,61.0,100,29.83,10.0,West,6.9,-,N/A,,Clear,280,2013-05-22 13:15:00
8:35 AM,60.8,60.3,98,29.83,10.0,West,4.6,-,N/A,,Clear,260,2013-05-22 13:35:00
8:55 AM,61.5,58.8,91,29.84,10.0,West,4.6,-,N/A,,Clear,270,2013-05-22 13:55:00
9:15 AM,62.6,57.6,84,29.84,10.0,NW,3.5,-,N/A,,Clear,310,2013-05-22 14:15:00
9:35 AM,63.5,56.5,78,29.85,10.0,West,8.1,-,N/A,,Clear,280,2013-05-22 14:35:00
9:55 AM,63.5,54.5,72,29.86,10.0,West,5.8,-,N/A,,Scattered Clouds,280,2013-05-22 14:55:00
10:15 AM,63.7,54.3,72,29.85,10.0,West,5.8,-,N/A,,Scattered Clouds,270,2013-05-22 15:15:00
10:35 AM,64.4,54.1,69,29.86,10.0,West,6.9,-,N/A,,Mostly Cloudy,270,2013-05-22 15:35:00
10:55 AM,65.1,54.1,68,29.87,10.0,NW,6.9,-,N/A,,Scattered Clouds,310,2013-05-22 15:55:00
11:15 AM,65.8,53.8,65,29.87,10.0,WNW,10.4,-,N/A,,Scattered Clouds,290,2013-05-22 16:15:00
11:35 AM,66.4,53.4,63,29.87,10.0,NW,8.1,-,N/A,,Mostly Cloudy,310,2013-05-22 16:35:00
11:55 AM,65.5,52.3,62,29.88,10.0,WNW,5.8,-,N/A,,Mostly Cloudy,300,2013-05-22 16:55:00
12:15 PM,65.7,53.2,64,29.88,10.0,WNW,5.8,-,N/A,,Mostly Cloudy,290,2013-05-22 17:15:00
12:35 PM,66.9,53.8,63,29.88,10.0,West,8.1,-,N/A,,Mostly Cloudy,270,2013-05-22 17:35:00
12:55 PM,68.4,54.7,62,29.89,10.0,WNW,8.1,-,N/A,,Scattered Clouds,290,2013-05-22 17:55:00
1:15 PM,68.0,54.5,62,29.89,10.0,West,9.2,-,N/A,,Mostly Cloudy,270,2013-05-22 18:15:00
1:35 PM,67.8,53.8,61,29.89,10.0,West,9.2,-,N/A,,Mostly Cloudy,280,2013-05-22 18:35:00
1:55 PM,68.0,53.8,60,29.89,10.0,West,8.1,17.3,N/A,,Mostly Cloudy,280,2013-05-22 18:55:00
2:15 PM,69.1,55.6,62,29.89,10.0,NW,5.8,-,N/A,,Mostly Cloudy,320,2013-05-22 19:15:00
2:35 PM,69.3,54.7,60,29.89,10.0,West,6.9,-,N/A,,Mostly Cloudy,270,2013-05-22 19:35:00
2:55 PM,70.2,56.1,61,29.88,10.0,WNW,5.8,-,N/A,,Mostly Cloudy,290,2013-05-22 19:55:00
3:15 PM,70.9,56.5,60,29.88,10.0,West,6.9,-,N/A,,Mostly Cloudy,280,2013-05-22 20:15:00
3:35 PM,70.9,56.3,60,29.87,10.0,WNW,8.1,-,N/A,,Mostly Cloudy,300,2013-05-22 20:35:00
3:55 PM,70.9,55.9,59,29.87,10.0,West,10.4,17.3,N/A,,Mostly Cloudy,270,2013-05-22 20:55:00
4:15 PM,70.9,55.6,58,29.87,10.0,WSW,8.1,-,N/A,,Mostly Cloudy,250,2013-05-22 21:15:00
4:35 PM,70.9,55.2,58,29.86,10.0,West,9.2,-,N/A,,Mostly Cloudy,270,2013-05-22 21:35:00
4:55 PM,71.1,55.0,57,29.86,10.0,WNW,4.6,-,N/A,,Mostly Cloudy,300,2013-05-22 21:55:00
5:15 PM,71.6,54.9,55,29.86,10.0,WNW,5.8,-,N/A,,Scattered Clouds,300,2013-05-22 22:15:00
5:35 PM,71.1,54.5,56,29.86,10.0,West,8.1,-,N/A,,Scattered Clouds,280,2013-05-22 22:35:00
5:55 PM,71.6,54.0,54,29.87,10.0,NW,4.6,-,N/A,,Scattered Clouds,310,2013-05-22 22:55:00
6:15 PM,71.2,54.3,55,29.87,10.0,Calm,Calm,-,N/A,,Scattered Clouds,0,2013-05-22 23:15:00
6:35 PM,71.2,54.1,55,29.87,10.0,NW,5.8,-,N/A,,Scattered Clouds,320,2013-05-22 23:35:00
6:55 PM,70.9,54.1,55,29.87,10.0,Calm,Calm,-,N/A,,Clear,0,2013-05-22 23:55:00
7:15 PM,70.9,54.7,56,29.87,10.0,Calm,Calm,-,N/A,,Clear,0,2013-05-23 00:15:00
7:35 PM,70.9,55.4,58,29.88,10.0,Calm,Calm,-,N/A,,Clear,0,2013-05-23 00:35:00
7:55 PM,70.9,56.5,60,29.89,10.0,Calm,Calm,-,N/A,,Clear,0,2013-05-23 00:55:00
8:15 PM,70.9,59.2,66,29.90,10.0,Calm,Calm,-,N/A,,Clear,0,2013-05-23 01:15:00
8:35 PM,68.5,58.3,70,29.90,10.0,Calm,Calm,-,N/A,,Clear,0,2013-05-23 01:35:00
8:55 PM,64.4,62.6,94,29.91,10.0,Calm,Calm,-,N/A,,Clear,0,2013-05-23 01:55:00
9:15 PM,63.5,63.3,99,29.92,10.0,Calm,Calm,-,N/A,,Clear,0,2013-05-23 02:15:00
9:35 PM,62.8,62.8,100,29.92,10.0,Calm,Calm,-,N/A,,Scattered Clouds,0,2013-05-23 02:35:00
9:55 PM,61.9,62.1,100,29.93,10.0,Calm,Calm,-,N/A,,Scattered Clouds,0,2013-05-23 02:55:00
10:15 PM,61.2,61.3,100,29.94,10.0,Calm,Calm,-,N/A,,Clear,0,2013-05-23 03:15:00
10:35 PM,60.8,-9999,N/A,29.94,10.0,Calm,Calm,-,N/A,,Clear,0,2013-05-23 03:35:00
10:55 PM,60.4,60.6,100,29.94,10.0,Calm,Calm,-,N/A,,Clear,0,2013-05-23 03:55:00
11:15 PM,60.1,60.3,100,29.95,10.0,Calm,Calm,-,N/A,,Clear,0,2013-05-23 04:15:00
11:35 PM,59.0,-9999,N/A,29.95,10.0,Calm,Calm,-,N/A,,Clear,0,2013-05-23 04:35:00
11:55 PM,58.3,-9999,N/A,29.95,10.0,Calm,Calm,-,N/A,,Clear,0,2013-05-23 04:55:00